Flag for Norway Weather past 2 weeks in Elverum, Norway

Now
58 °F

Cool.


Feels Like: 58 °F
Forecast: 46 / 69 °F
Wind: 2 mph from Southwest

Location: Haugedalshogda

Current Time: Aug 20, 2014 at 6:45:33 PM

Latest Report: Aug 20, 2014 at 6:00 PM


Visibility: N/A

Pressure: 29.44 "Hg

Humidity: 77%

Dew point: 51 °F

Location of ElverumLocation

Historic Weather in Elverum — Graph

°F

Elverum temperature yesterday

Maximum temperature yesterday: 62 °F (at 3:00 PM)
Minimum temperature yesterday: 39 °F (at 12:00 AM)
Average temperature yesterday: 51 °F

Past Weeks' High & Low Weather Summary

 TemperatureHumidityPressure
High76 °F (Aug 9, 4:00 PM)95% (Aug 7, 6:00 AM)30.00 "Hg (Aug 7, 6:00 AM)
Low39 °F (Aug 18, 11:00 PM)34% (Aug 9, 3:00 PM)29.18 "Hg (Aug 18, 4:00 PM)
Average57 °F78%29.64 "Hg
* Reported Aug 5 5:00 PM — Aug 20 5:00 PM, Elverum, Weather by CustomWeather, © 2014

Note: Actual official high and low records may vary slightly from our data, if they occured in-between our weather recording intervals... More about our weather records

Advertising

Elverum weather history for previous 24 hours

 ConditionsComfort  
Time TempWeatherWind HumidityBarometerVisibility
5:00 PM
Aug 20
59 °FCool.1 mph75%29.44 "HgN/A
4:00 PM60 °FCool.1 mph64%29.44 "HgN/A
3:00 PM59 °FCool.1 mph72%29.44 "HgN/A
2:00 PM63 °FMild.3 mph51%29.41 "HgN/A
1:00 PM64 °FMild.5 mph52%29.41 "HgN/A
12:00 PM61 °FCool.5 mph62%29.41 "HgN/A
11:00 AM60 °FCool.6 mph63%29.41 "HgN/A
10:00 AM57 °FCool.1 mph80%29.41 "HgN/A
9:00 AM53 °FCool.2 mph90%29.41 "HgN/A
8:00 AM51 °FCool.1 mph94%29.41 "HgN/A
7:00 AM50 °FCool.1 mph94%29.41 "HgN/A
6:00 AM47 °FCool.1 mph94%29.41 "HgN/A
5:00 AM49 °FCool.2 mph93%29.38 "HgN/A
4:00 AM50 °FCool.1 mph93%29.38 "HgN/A
3:00 AM50 °FCool.1 mph92%29.38 "HgN/A
2:00 AM51 °FCool.1 mph93%29.38 "HgN/A
1:00 AM51 °FCool.2 mph93%29.38 "HgN/A
12:00 AM51 °FCool.2 mph92%29.35 "HgN/A
11:00 PM
Aug 19
52 °FCool.1 mph90%29.35 "HgN/A
10:00 PM53 °FCool.3 mph91%29.32 "HgN/A
9:00 PM53 °FCool.1 mph89%29.32 "HgN/A
8:00 PM56 °FCool.1 mph83%29.29 "HgN/A
7:00 PM55 °FCool.2 mph86%29.29 "HgN/A
6:00 PM55 °FCool.1 mph81%29.29 "HgN/A
Weather by CustomWeather, © 2014

See weather overviewHow to use our weather pages